TOM452 LEPA-EDDF

Flight info

Callsign TOM452
Flight time N/A
Altitude 34000
Route MEROS DCT LAPIT DCT CHELY/N0464F320 DCT LUMAS DCT MAXIR DCT LUSOL DCT BODRU DCT OKTET DCT IRMAR DCT KINES DCT VANAS DCT MOBLO DCT UBIMA DCT SOSAL DCT KORED DCT BERSU N871 DITON/N0459F350 DCT LADOL/N0458F360 T163 EMPAX EMPAX5B
Aircraft B738/M-SDE2E3FGHIRWXY/LB1

Departure

Time 2026-05-03 20:18
Airport Palma de Mallorca Airport (LEPA)

Arrival

Time N/A
Airport Frankfurt Main Airport (EDDF)
Time Latitude Longitude Altitude Speed Heading
2026-05-03 20:15 39.55832 2.73877 29 ft 13 kts 56°
2026-05-03 20:15 39.55881 2.73977 29 ft 13 kts 60°
2026-05-03 20:15 39.55912 2.74042 29 ft 13 kts 57°
2026-05-03 20:15 39.55972 2.74170 29 ft 12 kts 59°
2026-05-03 20:16 39.56017 2.74263 29 ft 12 kts 59°
2026-05-03 20:16 39.56059 2.74352 29 ft 12 kts 59°
2026-05-03 20:16 39.56106 2.74435 29 ft 11 kts 38°
2026-05-03 20:16 39.56133 2.74452 29 ft 0 kts
2026-05-03 20:17 39.56147 2.74452 29 ft 9 kts 355°
2026-05-03 20:17 39.56245 2.74377 29 ft 18 kts 304°
2026-05-03 20:17 39.56198 2.74203 29 ft 42 kts 239°
2026-05-03 20:18 39.55892 2.73549 29 ft 125 kts 239°
2026-05-03 20:18 39.55330 2.72345 160 ft 182 kts 239°
2026-05-03 20:18 39.54606 2.70973 1119 ft 188 kts 230°
2026-05-03 20:18 39.53695 2.69594 1807 ft 209 kts 239°
2026-05-03 20:19 39.53012 2.67922 2580 ft 212 kts 241°
2026-05-03 20:19 39.52267 2.66250 3167 ft 216 kts 239°
2026-05-03 20:19 39.51475 2.64569 3788 ft 219 kts 238°
2026-05-03 20:19 39.50673 2.62905 4381 ft 222 kts 238°
2026-05-03 20:20 39.49807 2.61223 4925 ft 229 kts 227°
2026-05-03 20:20 39.48422 2.59986 5015 ft 261 kts 207°
2026-05-03 20:20 39.46781 2.58864 5011 ft 269 kts 209°
2026-05-03 20:20 39.45688 2.58085 5160 ft 273 kts 209°
2026-05-03 20:21 39.44014 2.56881 5982 ft 273 kts 207°
2026-05-03 20:21 39.41542 2.56441 6948 ft 281 kts 163°
2026-05-03 20:21 39.40359 2.57194 7466 ft 283 kts 141°
2026-05-03 20:21 39.38976 2.59019 8260 ft 286 kts 133°
2026-05-03 20:22 39.37623 2.60884 8977 ft 290 kts 134°
2026-05-03 20:22 39.36200 2.62762 9717 ft 293 kts 135°
2026-05-03 20:22 39.34739 2.64638 10460 ft 296 kts 136°
2026-05-03 20:22 39.33247 2.66514 11184 ft 300 kts 136°
2026-05-03 20:23 39.31731 2.68397 11902 ft 303 kts 136°
2026-05-03 20:23 39.30221 2.70263 12583 ft 306 kts 136°
2026-05-03 20:23 39.28673 2.72174 13268 ft 309 kts 135°
2026-05-03 20:23 39.27420 2.74444 13876 ft 314 kts 110°
2026-05-03 20:24 39.27108 2.77216 14497 ft 316 kts 85°
2026-05-03 20:24 39.27594 2.79968 14950 ft 326 kts 70°
2026-05-03 20:24 39.28470 2.82777 15091 ft 346 kts 66°
2026-05-03 20:24 39.29476 2.85703 15244 ft 365 kts 65°
2026-05-03 20:25 39.30547 2.88781 15383 ft 383 kts 66°
2026-05-03 20:25 39.31653 2.92001 15517 ft 400 kts 66°
2026-05-03 20:25 39.32765 2.95292 15869 ft 408 kts 66°
2026-05-03 20:25 39.33900 2.98687 16419 ft 411 kts 66°
2026-05-03 20:26 39.35033 3.02099 16997 ft 413 kts 66°
2026-05-03 20:26 39.36167 3.05539 17528 ft 417 kts 67°
2026-05-03 20:26 39.37302 3.09001 18008 ft 420 kts 67°
2026-05-03 20:26 39.38447 3.12505 18515 ft 423 kts 67°
2026-05-03 20:27 39.39583 3.15988 18987 ft 426 kts 67°
2026-05-03 20:27 39.40739 3.19537 19460 ft 429 kts 67°
2026-05-03 20:27 39.41904 3.23115 19924 ft 432 kts 67°
2026-05-03 20:27 39.43121 3.26685 20373 ft 435 kts 63°
2026-05-03 20:28 39.44580 3.30065 20822 ft 437 kts 59°
2026-05-03 20:28 39.46158 3.33445 21242 ft 440 kts 58°
2026-05-03 20:28 39.47779 3.36853 21647 ft 442 kts 58°
2026-05-03 20:28 39.49394 3.40257 22037 ft 445 kts 58°
2026-05-03 20:29 39.51007 3.43694 22421 ft 448 kts 59°
2026-05-03 20:29 39.52620 3.47167 22795 ft 450 kts 59°
2026-05-03 20:29 39.54209 3.50615 23151 ft 453 kts 59°
2026-05-03 20:29 39.55823 3.54134 23503 ft 455 kts 59°
2026-05-03 20:30 39.57445 3.57685 23851 ft 457 kts 59°
2026-05-03 20:30 39.59070 3.61246 24188 ft 460 kts 59°
2026-05-03 20:30 39.60703 3.64830 24518 ft 462 kts 59°
2026-05-03 20:30 39.62322 3.68384 24829 ft 464 kts 59°
2026-05-03 20:31 39.63969 3.72004 25137 ft 466 kts 59°
2026-05-03 20:31 39.65622 3.75641 25438 ft 468 kts 59°
2026-05-03 20:31 39.67280 3.79293 25725 ft 470 kts 59°
2026-05-03 20:31 39.68953 3.82981 26006 ft 472 kts 59°
2026-05-03 20:32 39.70622 3.86665 26277 ft 474 kts 59°
2026-05-03 20:32 39.72297 3.90366 26546 ft 476 kts 59°
2026-05-03 20:32 39.73981 3.94092 26846 ft 477 kts 59°
2026-05-03 20:32 39.75636 3.97759 27233 ft 475 kts 59°
2026-05-03 20:33 39.77246 4.01330 27621 ft 473 kts 59°
2026-05-03 20:33 39.78909 4.05025 27990 ft 472 kts 59°
2026-05-03 20:33 39.80568 4.08713 28328 ft 472 kts 59°
2026-05-03 20:33 39.82227 4.12406 28662 ft 472 kts 59°
2026-05-03 20:34 39.83868 4.16061 29017 ft 471 kts 59°
2026-05-03 20:34 39.85507 4.19751 29370 ft 470 kts 62°
2026-05-03 20:34 39.86868 4.23629 29659 ft 471 kts 71°
2026-05-03 20:34 39.87772 4.27729 29986 ft 470 kts 75°
2026-05-03 20:35 39.88579 4.31853 30354 ft 468 kts 76°
2026-05-03 20:35 39.89373 4.35923 30687 ft 467 kts 75°
2026-05-03 20:35 39.90192 4.40023 30978 ft 467 kts 75°
2026-05-03 20:35 39.91031 4.44127 31267 ft 467 kts 75°
2026-05-03 20:36 39.91878 4.48219 31581 ft 466 kts 75°
2026-05-03 20:36 39.92720 4.52291 31886 ft 465 kts 75°
2026-05-03 20:36 39.93675 4.56273 32138 ft 465 kts 64°
2026-05-03 20:36 39.95449 4.59776 32343 ft 465 kts 46°
2026-05-03 20:37 39.97952 4.62444 32641 ft 463 kts 30°
2026-05-03 20:37 40.00885 4.64118 32921 ft 461 kts 15°
2026-05-03 20:37 40.04044 4.64805 33134 ft 461 kts 359°
2026-05-03 20:37 40.07229 4.64411 33356 ft 460 kts 351°
2026-05-03 20:38 40.10362 4.63720 33618 ft 459 kts 349°
2026-05-03 20:38 40.13514 4.62973 33849 ft 459 kts 349°
2026-05-03 20:38 40.16668 4.62221 34088 ft 459 kts 349°
2026-05-03 20:38 40.19821 4.61485 34341 ft 458 kts 349°
2026-05-03 20:39 40.22972 4.60770 34585 ft 457 kts 350°
2026-05-03 20:39 40.26074 4.60080 34797 ft 457 kts 350°
2026-05-03 20:39 40.29211 4.59391 35021 ft 457 kts 350°
2026-05-03 20:39 40.32344 4.58707 35243 ft 456 kts 350°
2026-05-03 20:40 40.35484 4.58022 35461 ft 456 kts 350°
2026-05-03 20:40 40.38623 4.57336 35662 ft 455 kts 350°
2026-05-03 20:40 40.41757 4.56650 35860 ft 455 kts 350°
2026-05-03 20:40 40.44839 4.55974 36056 ft 455 kts 350°
2026-05-03 20:41 40.48096 4.55259 36244 ft 454 kts 350°
2026-05-03 20:41 40.51096 4.54599 36396 ft 455 kts 350°
2026-05-03 20:41 40.54224 4.53911 36553 ft 455 kts 350°
2026-05-03 20:41 40.57348 4.53222 36729 ft 455 kts 350°
2026-05-03 20:42 40.60477 4.52532 36892 ft 455 kts 350°
2026-05-03 20:42 40.63564 4.51851 36994 ft 456 kts 350°
2026-05-03 20:42 40.66701 4.51157 36987 ft 457 kts 350°
2026-05-03 20:43 40.72945 4.49776 36999 ft 454 kts 350°
2026-05-03 20:43 40.79538 4.48314 37003 ft 453 kts 350°
2026-05-03 20:44 40.85405 4.47011 37002 ft 453 kts 350°
2026-05-03 20:44 40.91646 4.46528 37002 ft 453 kts
2026-05-03 20:45 40.97863 4.48044 37002 ft 453 kts 11°
2026-05-03 20:45 41.04029 4.49657 37002 ft 453 kts 10°
2026-05-03 20:46 41.10255 4.51177 37001 ft 454 kts 10°
2026-05-03 20:46 41.16443 4.52682 37002 ft 455 kts 10°
2026-05-03 20:47 41.22686 4.54207 37002 ft 456 kts 10°
2026-05-03 20:47 41.28937 4.55739 37002 ft 456 kts 10°
2026-05-03 20:48 41.35151 4.57265 37002 ft 457 kts 10°
2026-05-03 20:48 41.41415 4.58806 37001 ft 457 kts 10°
2026-05-03 20:49 41.47682 4.60351 37001 ft 457 kts 10°
2026-05-03 20:49 41.53918 4.61892 37001 ft 457 kts 10°
2026-05-03 20:50 41.60200 4.63447 37001 ft 457 kts 10°
2026-05-03 20:50 41.66458 4.64999 37001 ft 457 kts 10°
2026-05-03 20:51 41.72642 4.66765 36991 ft 457 kts 18°
2026-05-03 20:51 41.78332 4.70509 37012 ft 456 kts 31°
2026-05-03 20:52 41.83744 4.74953 36999 ft 456 kts 31°
2026-05-03 20:52 41.89164 4.79405 37001 ft 456 kts 31°
2026-05-03 20:53 41.94557 4.83784 37001 ft 456 kts 31°
2026-05-03 20:53 41.99995 4.88179 37001 ft 455 kts 31°
2026-05-03 20:54 42.05436 4.92580 37001 ft 456 kts 31°
2026-05-03 20:54 42.13582 4.99187 37002 ft 456 kts 31°
2026-05-03 20:55 42.18928 5.03537 37002 ft 456 kts 31°
2026-05-03 20:55 42.24363 5.07968 37002 ft 456 kts 31°
2026-05-03 20:56 42.29809 5.12416 37002 ft 456 kts 31°
2026-05-03 20:56 42.35222 5.16846 37001 ft 456 kts 31°
2026-05-03 20:57 42.40677 5.21320 37001 ft 457 kts 31°
2026-05-03 20:57 42.46089 5.25768 37001 ft 457 kts 31°
2026-05-03 20:58 42.51531 5.30249 37001 ft 457 kts 31°
2026-05-03 20:58 42.56939 5.34713 37001 ft 457 kts 31°
2026-05-03 20:59 42.62380 5.39212 37001 ft 457 kts 31°
2026-05-03 20:59 42.67816 5.43717 37001 ft 457 kts 31°
2026-05-03 21:00 42.71425 5.46713 37001 ft 457 kts 31°
2026-05-03 21:00 42.78661 5.52731 37001 ft 457 kts 31°
2026-05-03 21:01 42.84092 5.57260 37001 ft 457 kts 31°
2026-05-03 21:01 42.89492 5.61772 37001 ft 457 kts 31°
2026-05-03 21:02 42.94919 5.66317 37001 ft 457 kts 31°
2026-05-03 21:02 42.99427 5.70098 37001 ft 457 kts 31°
2026-05-03 21:03 43.05720 5.75389 37001 ft 456 kts 31°
2026-05-03 21:03 43.10259 5.79213 37001 ft 456 kts 31°
2026-05-03 21:04 43.16527 5.84505 36997 ft 457 kts 31°
2026-05-03 21:04 43.21036 5.88320 36999 ft 457 kts 31°
2026-05-03 21:05 43.26458 5.92916 37002 ft 458 kts 31°
2026-05-03 21:05 43.31886 5.97527 37001 ft 459 kts 31°
2026-05-03 21:06 43.37267 6.01975 36992 ft 460 kts 25°
2026-05-03 21:06 43.43352 6.04586 36995 ft 459 kts
2026-05-03 21:07 43.49726 6.05233 37001 ft 459 kts
2026-05-03 21:07 43.56101 6.05745 36998 ft 460 kts
2026-05-03 21:08 43.62472 6.06345 36997 ft 460 kts
2026-05-03 21:08 43.68876 6.06984 37004 ft 461 kts
2026-05-03 21:09 43.75276 6.07729 36992 ft 461 kts 10°
2026-05-03 21:09 43.81324 6.10454 37001 ft 461 kts 26°
2026-05-03 21:10 43.87064 6.14457 37002 ft 461 kts 27°
2026-05-03 21:10 43.92809 6.18481 36998 ft 461 kts 26°
2026-05-03 21:11 43.98534 6.22423 37000 ft 462 kts 26°
2026-05-03 21:11 44.04292 6.26366 36997 ft 462 kts 26°
2026-05-03 21:12 44.10073 6.30335 37002 ft 463 kts 26°
2026-05-03 21:12 44.15854 6.34316 36998 ft 463 kts 26°
2026-05-03 21:13 44.21614 6.38290 37005 ft 463 kts 26°
2026-05-03 21:13 44.27416 6.42309 36998 ft 464 kts 26°
2026-05-03 21:14 44.33191 6.46321 36987 ft 467 kts 26°
2026-05-03 21:14 44.39014 6.50375 36999 ft 468 kts 26°
2026-05-03 21:15 44.44861 6.54454 36989 ft 470 kts 26°
2026-05-03 21:15 44.50732 6.58554 37004 ft 471 kts 26°
2026-05-03 21:16 44.56585 6.62622 37003 ft 472 kts 26°
2026-05-03 21:16 44.62494 6.66737 37011 ft 473 kts 26°
2026-05-03 21:17 44.67401 6.70165 37004 ft 473 kts 26°
2026-05-03 21:17 44.74250 6.74961 36991 ft 472 kts 26°
2026-05-03 21:18 44.80366 6.78178 37003 ft 470 kts 11°
2026-05-03 21:18 44.86873 6.78756 37019 ft 468 kts 357°
2026-05-03 21:19 44.93367 6.78232 37005 ft 469 kts 356°
2026-05-03 21:19 44.99903 6.77712 37002 ft 468 kts 356°
2026-05-03 21:20 45.06392 6.77264 37008 ft 468 kts 357°
2026-05-03 21:20 45.12906 6.76838 37008 ft 468 kts 357°
2026-05-03 21:21 45.19396 6.76411 37012 ft 470 kts 357°
2026-05-03 21:21 45.25937 6.75977 36994 ft 468 kts 357°
2026-05-03 21:22 45.32449 6.75544 37002 ft 469 kts 357°
2026-05-03 21:22 45.38995 6.75123 37016 ft 470 kts 357°
2026-05-03 21:23 45.45523 6.74712 37015 ft 473 kts 357°
2026-05-03 21:23 45.52117 6.74273 37012 ft 474 kts 357°
2026-05-03 21:24 45.58702 6.73822 36998 ft 466 kts 357°
2026-05-03 21:24 45.65105 6.73385 36988 ft 462 kts 357°
2026-05-03 21:25 45.71579 6.72943 37007 ft 466 kts 357°
2026-05-03 21:25 45.78074 6.72500 37011 ft 470 kts 357°
2026-05-03 21:26 45.84640 6.72049 36997 ft 470 kts 357°
2026-05-03 21:26 45.91097 6.71601 36992 ft 462 kts 357°
2026-05-03 21:27 45.97484 6.71156 36985 ft 459 kts 357°
2026-05-03 21:27 46.03901 6.70708 37003 ft 464 kts 357°
2026-05-03 21:28 46.10337 6.70285 37005 ft 466 kts 360°
2026-05-03 21:28 46.16731 6.71619 37007 ft 465 kts 16°
2026-05-03 21:29 46.22938 6.74338 37004 ft 464 kts 17°
2026-05-03 21:29 46.29099 6.77040 36999 ft 464 kts 16°
2026-05-03 21:30 46.35302 6.79685 36995 ft 465 kts 16°
2026-05-03 21:30 46.41512 6.82314 37006 ft 464 kts 16°
2026-05-03 21:31 46.47718 6.84951 36993 ft 463 kts 16°
2026-05-03 21:31 46.53773 6.87945 36991 ft 462 kts 28°
2026-05-03 21:32 46.58862 6.93610 36996 ft 461 kts 49°
2026-05-03 21:32 46.62811 7.00743 37001 ft 460 kts 52°
2026-05-03 21:33 46.66773 7.08075 37004 ft 460 kts 51°
2026-05-03 21:33 46.70780 7.15378 36998 ft 461 kts 51°
2026-05-03 21:34 46.74782 7.22624 37003 ft 461 kts 51°
2026-05-03 21:34 46.78820 7.29952 37001 ft 462 kts 51°
2026-05-03 21:35 46.82831 7.37254 37004 ft 463 kts 51°
2026-05-03 21:35 46.86861 7.44616 36998 ft 464 kts 51°
2026-05-03 21:36 46.90610 7.51499 37012 ft 464 kts 51°
2026-05-03 21:36 46.94615 7.58875 36997 ft 464 kts 51°
2026-05-03 21:37 46.98636 7.66297 37005 ft 464 kts 51°
2026-05-03 21:37 47.02615 7.73662 36999 ft 464 kts 51°
2026-05-03 21:38 47.06624 7.81102 36998 ft 464 kts 51°
2026-05-03 21:38 47.10631 7.88557 37004 ft 464 kts 51°
2026-05-03 21:39 47.14524 7.96042 36995 ft 463 kts 57°
2026-05-03 21:39 47.17823 8.04055 37003 ft 463 kts 59°
2026-05-03 21:40 47.21199 8.12126 37000 ft 462 kts 58°
2026-05-03 21:40 47.24607 8.20111 37003 ft 462 kts 58°
2026-05-03 21:41 47.28039 8.28120 36995 ft 461 kts 54°
2026-05-03 21:41 47.30110 8.31728 37005 ft 460 kts 43°
2026-05-03 21:41 47.32536 8.34728 37003 ft 459 kts 34°
2026-05-03 21:42 47.38174 8.39164 37006 ft 459 kts 25°
2026-05-03 21:42 47.43977 8.43128 36999 ft 459 kts 25°
2026-05-03 21:43 47.49752 8.47132 37001 ft 459 kts 25°
2026-05-03 21:43 47.55501 8.51194 37000 ft 459 kts 25°
2026-05-03 21:44 47.61269 8.55304 37001 ft 459 kts 25°
2026-05-03 21:44 47.66073 8.58735 37001 ft 460 kts 25°
2026-05-03 21:45 47.71836 8.62858 37000 ft 460 kts 25°
2026-05-03 21:45 47.77612 8.66999 36999 ft 460 kts 25°
2026-05-03 21:46 47.83390 8.71152 37000 ft 461 kts 25°
2026-05-03 21:46 47.89141 8.75296 37003 ft 461 kts 25°
2026-05-03 21:47 47.94948 8.79490 37000 ft 462 kts 25°
2026-05-03 21:47 48.00711 8.83663 37005 ft 462 kts 26°
2026-05-03 21:48 48.06510 8.87874 37000 ft 463 kts 26°
2026-05-03 21:48 48.12311 8.92096 37003 ft 463 kts 26°
2026-05-03 21:49 48.18280 8.95532 37002 ft 463 kts 12°
2026-05-03 21:49 48.24699 8.96675 37003 ft 463 kts
2026-05-03 21:50 48.31081 8.97515 36997 ft 463 kts
2026-05-03 21:50 48.34320 8.97979 36527 ft 469 kts
2026-05-03 21:50 48.37554 8.98467 36063 ft 465 kts
2026-05-03 21:51 48.40792 8.98966 35399 ft 465 kts
2026-05-03 21:51 48.44020 8.99464 34747 ft 466 kts
2026-05-03 21:51 48.47206 8.99954 34088 ft 466 kts
2026-05-03 21:51 48.50352 9.00437 33426 ft 467 kts
2026-05-03 21:52 48.53588 9.00934 32715 ft 468 kts
2026-05-03 21:52 48.56830 9.01432 32010 ft 469 kts
2026-05-03 21:52 48.60085 9.01934 31274 ft 470 kts
2026-05-03 21:52 48.63344 9.02451 30519 ft 471 kts
2026-05-03 21:53 48.66563 9.03122 29740 ft 472 kts
2026-05-03 21:53 48.69820 9.03916 28913 ft 473 kts
2026-05-03 21:53 48.73067 9.04741 28055 ft 474 kts
2026-05-03 21:53 48.76332 9.05561 27168 ft 475 kts
2026-05-03 21:54 48.79610 9.06364 26242 ft 476 kts
2026-05-03 21:54 48.82848 9.07142 25468 ft 475 kts
2026-05-03 21:54 48.86108 9.07920 24803 ft 469 kts
2026-05-03 21:54 48.89297 9.08646 24137 ft 464 kts
2026-05-03 21:55 48.92490 9.09148 23476 ft 459 kts
2026-05-03 21:55 48.95676 9.09536 22819 ft 454 kts
2026-05-03 21:55 48.98815 9.09937 22168 ft 449 kts
2026-05-03 21:55 49.01888 9.10363 21532 ft 445 kts
2026-05-03 21:56 49.04954 9.10802 20894 ft 440 kts
2026-05-03 21:56 49.07995 9.11239 20261 ft 436 kts
2026-05-03 21:56 49.10999 9.11670 19633 ft 431 kts
2026-05-03 21:56 49.13986 9.12098 19008 ft 427 kts
2026-05-03 21:57 49.17015 9.12532 18372 ft 423 kts
2026-05-03 21:57 49.19825 9.12934 17780 ft 419 kts
2026-05-03 21:57 49.22728 9.13351 17166 ft 415 kts
2026-05-03 21:57 49.25866 9.13801 16499 ft 411 kts
2026-05-03 21:58 49.28712 9.14244 15899 ft 407 kts
2026-05-03 21:58 49.31487 9.15065 15340 ft 404 kts 13°
2026-05-03 21:58 49.34216 9.16071 14779 ft 402 kts 13°
2026-05-03 21:58 49.36927 9.17103 14222 ft 401 kts 13°
2026-05-03 21:59 49.39640 9.18116 13664 ft 400 kts 13°
2026-05-03 21:59 49.42338 9.19100 13110 ft 398 kts 13°
2026-05-03 21:59 49.44997 9.20057 12565 ft 395 kts 13°
2026-05-03 21:59 49.47676 9.21009 12014 ft 393 kts 13°
2026-05-03 22:00 49.50341 9.21954 11471 ft 390 kts 13°
2026-05-03 22:00 49.52967 9.22890 10970 ft 384 kts 13°
2026-05-03 22:00 49.55519 9.23799 10841 ft 369 kts 13°
2026-05-03 22:00 49.58095 9.24718 10763 ft 356 kts 13°
2026-05-03 22:01 49.60413 9.25546 10266 ft 361 kts 13°
2026-05-03 22:01 49.62880 9.26430 10112 ft 373 kts 13°
2026-05-03 22:01 49.65438 9.27348 10032 ft 379 kts 13°
2026-05-03 22:01 49.68014 9.28271 10005 ft 380 kts 13°
2026-05-03 22:02 49.70588 9.29195 9995 ft 379 kts 13°
2026-05-03 22:02 49.73163 9.30120 9994 ft 379 kts 13°
2026-05-03 22:02 49.75730 9.31044 9996 ft 379 kts 13°
2026-05-03 22:02 49.78301 9.31970 9996 ft 378 kts 13°
2026-05-03 22:03 49.80858 9.32741 9988 ft 378 kts
2026-05-03 22:03 49.83467 9.32441 10011 ft 377 kts 348°
2026-05-03 22:03 49.86032 9.31471 10008 ft 378 kts 345°
2026-05-03 22:03 49.88569 9.30391 9856 ft 373 kts 344°
2026-05-03 22:04 49.91053 9.29306 9416 ft 370 kts 344°
2026-05-03 22:04 49.93494 9.28231 8808 ft 368 kts 343°
2026-05-03 22:04 49.95964 9.27138 8159 ft 368 kts 343°
2026-05-03 22:04 49.98424 9.26047 7609 ft 365 kts 343°
2026-05-03 22:05 50.00855 9.24968 7168 ft 361 kts 343°
2026-05-03 22:05 50.03200 9.23925 7039 ft 348 kts 343°
2026-05-03 22:05 50.05477 9.22912 6940 ft 333 kts 343°
2026-05-03 22:05 50.07643 9.21949 6814 ft 315 kts 343°
2026-05-03 22:06 50.09695 9.21038 6690 ft 298 kts 344°
2026-05-03 22:06 50.11643 9.20174 6575 ft 283 kts 344°
2026-05-03 22:06 50.13460 9.19227 6450 ft 269 kts 331°
2026-05-03 22:06 50.14808 9.17357 6346 ft 254 kts 302°
2026-05-03 22:07 50.15464 9.14890 6087 ft 247 kts 286°
2026-05-03 22:07 50.15903 9.12296 5680 ft 247 kts 284°
2026-05-03 22:07 50.16317 9.09693 5282 ft 246 kts 283°
2026-05-03 22:07 50.16721 9.07127 4897 ft 245 kts 283°
2026-05-03 22:08 50.17126 9.04551 4525 ft 243 kts 283°
2026-05-03 22:08 50.17528 9.01990 4143 ft 242 kts 283°
2026-05-03 22:08 50.17928 8.99440 4037 ft 241 kts 283°
2026-05-03 22:08 50.18204 8.96904 3986 ft 234 kts 266°
2026-05-03 22:09 50.17712 8.94586 3989 ft 221 kts 233°
2026-05-03 22:09 50.16716 8.92897 3988 ft 202 kts 224°
2026-05-03 22:09 50.15746 8.91451 3976 ft 191 kts 224°
2026-05-03 22:10 50.13803 8.88601 4008 ft 192 kts 224°
2026-05-03 22:10 50.12834 8.87177 4016 ft 194 kts 226°
2026-05-03 22:10 50.12171 8.85390 3983 ft 191 kts 258°
2026-05-03 22:10 50.11803 8.83423 3849 ft 187 kts 247°
2026-05-03 22:11 50.11293 8.81451 3617 ft 215 kts 250°